Tracking 19564 objects as of 19-Mar-2019
HD Live streaming from Space Station
objects crossing your sky now

SL-12 R/B(2)

Track SL-12 R/B(2) now!
10-day predictions
SL-12 R/B(2) is classified as:


NORAD ID: 15772
Int'l Code: 1985-042D
Perigee: 804.0 km
Apogee: 852.6 km
Inclination: 71.1 °
Period: 101.3 minutes
Semi major axis: 7199 km
RCS: 14.3806 m2 (large)
Launch date: May 30, 1985
Source: Commonwealth of Independent States (former USSR) (CIS)
Launch site: TYURATAM MISSILE AND SPACE COMPLEX (TTMTR)

Note: This is a ROCKET BODY
aabbcc
Your satellite tracking list
Your tracking list is empty




NASA's NSSDC Master Catalog

Two Line Element Set (TLE):
1 15772U 85042D   19077.42976440 -.00000059 +00000-0 -55081-5 0  9991
2 15772 071.1076 066.8695 0033753 131.9721 337.5823 14.21245026752272
Source of the keplerian elements: AFSPC